Location: Newark
(47.5000°N, 4.6167°E)
Time: 11:17:09
(UTC+00:00)

ISS - Pass Details

Date: 02 December 2021
Orbit: 413 x 422 km, 51.6° (Epoch: 19 January)

Event Time Altitude Azimuth Distance (km) Brightness Sun altitude
Rises 18:27:01 0° 294° (WNW) 2,381 1.0 -25.3°
Reaches altitude 10° 18:29:08 10° 292° (WNW) 1,512 -0.1 -25.7°
Enters shadow 18:30:53 28° 286° (WNW) 832 -1.7 -26.0°
